Home > Weather > Galway > Past weeks

Flag for Ireland Weather for the Past 2 Weeks in Galway, Ireland

Now
48 °F

Passing clouds.


Feels Like: 43 °F
Forecast: 46 / 54 °F
Wind: 14 mph from Southeast

Location: Shannon Airport

Current Time: May 4, 2016 at 1:57:11 AM

Latest Report: May 4, 2016 at 1:30 AM


Visibility: N/A

Pressure: 30.18 "Hg

Humidity: 76%

Dew Point: 41 °F

Location of GalwayLocation

Historic Weather in Galway — Graph

°F

Galway Temperature Yesterday

Maximum temperature yesterday: 59 °F (at 1:30 PM)
Minimum temperature yesterday: 45 °F (at 12:00 AM)
Average temperature yesterday: 50 °F

High & Low Weather Summary for the Past Weeks

 TemperatureHumidityPressure
High63 °F (Apr 20, 3:00 PM)100% (May 1, 7:30 AM)30.39 "Hg (May 1, 7:30 AM)
Low34 °F (Apr 27, 4:00 AM)33% (Apr 21, 7:30 PM)29.86 "Hg (Apr 28, 12:30 PM)
Average49 °F68%30.15 "Hg
* Reported Apr 19 1:00 AM — May 4 1:00 AM, Galway, Weather by CustomWeather, © 2016

Note: Actual official high and low records may vary slightly from our data, if they occured in-between our weather recording intervals... More about our weather records

Advertising

Galway Weather History for the Previous 24 Hours

Scroll right to see more
 ConditionsComfort  
Time TempWeatherWind HumidityBarometerVisibility
1:00 AM
Wed, May 4
48 °FPassing clouds.13 mph76%30.18 "HgN/A
12:30 AM46 °FPassing clouds.12 mph76%30.18 "HgN/A
12:00 AM48 °FPassing clouds.10 mph71%30.21 "HgN/A
11:00 PM
Tue, May 3
48 °FPassing clouds.9 mph71%30.21 "HgN/A
10:30 PM48 °FPassing clouds.10 mph71%30.21 "HgN/A
10:00 PM48 °FScattered clouds.8 mph71%30.21 "HgN/A
9:30 PM48 °FPassing clouds.9 mph71%30.21 "HgN/A
9:00 PM50 °FScattered clouds.9 mph67%30.21 "HgN/A
8:30 PM52 °FPartly sunny.9 mph62%30.21 "HgN/A
8:00 PM54 °FPartly sunny.9 mph63%30.21 "HgN/A
7:30 PM54 °FPartly sunny.10 mph63%30.21 "HgN/A
7:00 PM54 °FPartly sunny.8 mph63%30.24 "HgN/A
6:30 PM54 °FPartly sunny.9 mph58%30.24 "HgN/A
6:00 PM54 °FPartly sunny.10 mph58%30.24 "HgN/A
5:30 PM54 °FPartly sunny.13 mph58%30.24 "HgN/A
5:00 PM54 °FPartly sunny.14 mph58%30.24 "HgN/A
4:30 PM55 °FPartly sunny.13 mph55%30.27 "HgN/A
4:00 PM55 °FScattered clouds.14 mph51%30.27 "HgN/A
3:30 PM55 °FPassing clouds.16 mph47%30.27 "HgN/A
3:00 PM55 °FScattered clouds.16 mph51%30.27 "HgN/A
2:30 PM55 °FScattered clouds.16 mph51%30.27 "HgN/A
2:00 PM55 °FScattered clouds.15 mph55%30.27 "HgN/A
1:30 PM59 °FScattered clouds.16 mph48%30.27 "HgN/A
12:30 PM54 °FPartly sunny.13 mph58%30.27 "HgN/A
12:00 PM54 °FPartly sunny.12 mph63%30.27 "HgN/A
11:30 AM52 °FPartly sunny.15 mph62%30.27 "HgN/A
11:00 AM52 °FPartly sunny.15 mph67%30.27 "HgN/A
10:30 AM50 °FPartly sunny.14 mph76%30.27 "HgN/A
10:00 AM52 °FPartly sunny.15 mph62%30.27 "HgN/A
9:30 AM50 °FScattered clouds.15 mph71%30.27 "HgN/A
9:00 AM50 °FScattered clouds.12 mph71%30.27 "HgN/A
8:30 AM48 °FScattered clouds.14 mph71%30.27 "HgN/A
8:00 AM46 °FPassing clouds.10 mph76%30.24 "HgN/A
7:30 AM45 °FScattered clouds.10 mph81%30.24 "HgN/A
7:00 AM45 °FSprinkles. Broken clouds.12 mph81%30.24 "HgN/A
6:30 AM45 °FPassing clouds.9 mph81%30.24 "HgN/A
6:00 AM45 °FPassing clouds.10 mph81%30.24 "HgN/A
5:30 AM45 °FPassing clouds.9 mph87%30.21 "HgN/A
4:30 AM46 °FPassing clouds.15 mph82%30.21 "HgN/A
4:00 AM45 °FPassing clouds.14 mph81%30.21 "HgN/A
3:30 AM46 °FPassing clouds.14 mph76%30.21 "HgN/A
2:30 AM46 °FPassing clouds.13 mph76%30.21 "HgN/A
2:00 AM46 °FPassing clouds.12 mph71%30.21 "HgN/A
1:30 AM46 °FPassing clouds.12 mph76%30.21 "HgN/A
1:00 AM46 °FPassing clouds.12 mph76%30.21 "HgN/A
Weather by CustomWeather, © 2016

See weather overviewHow to use our weather pages